Taganrog Yuzhny Airport

Jump to: basic info | weather | comments

Related pages: nearby airports | nearby navaids | notams | map

Basic information (top)

Codes: TGK URRT
Location: lon 47.200001, lat 38.849998, elev 118 ft / 36 m msl
Status: medium_airport

Weather (top)

Current conditions for Rostov-na-Donu Airport 40nm (73km) E (rec'd 2014/04/23 08:30Z):

URRR 230830Z 34005MPS CAVOK 19/10 Q1016 04CLRD70 NOSIG

Airport forecast for Rostov-na-Donu Airport 40nm (73km) E (rec'd 2014/04/23 09:20Z):

TAF URRR 230759Z 2309/2409 35005MPS 9999 SCT010 SCT020CB PROB40 
      TEMPO 2312/2318 -TSRA 
      BECMG 2318/2320 28005MPS

Latest comments (top)

dgs: gsdg [read]

More... (top)

See also NOTAMs and nearby airports and navaids, or visit the Taganrog Yuzhny Airport page at the main OurAirports website..